Year,Month,Day,Hour,Minute,Value (Times are PST for windspeed in km/hr)
2006,12,13,00,00,9.70
2006,12,13,00,01,6.20
2006,12,13,00,02,3.90
2006,12,13,00,03,2.90
2006,12,13,00,04,3.60
2006,12,13,00,05,4.20
2006,12,13,00,06,5.30
2006,12,13,00,07,7.90
2006,12,13,00,08,10.10
2006,12,13,00,09,2.90
2006,12,13,00,10,2.50
2006,12,13,00,11,2.30
2006,12,13,00,12,2.90
2006,12,13,00,13,1.70
2006,12,13,00,14,2.90
2006,12,13,00,15,5.60
2006,12,13,00,16,4.90
2006,12,13,00,17,4.00
2006,12,13,00,18,5.20
2006,12,13,00,19,5.50
2006,12,13,00,20,10.90
2006,12,13,00,21,14.70
2006,12,13,00,22,11.10
2006,12,13,00,23,14.00
2006,12,13,00,24,1.10
2006,12,13,00,25,6.40
2006,12,13,00,26,5.90
2006,12,13,00,27,1.70
2006,12,13,00,28,4.10
2006,12,13,00,29,3.00
2006,12,13,00,30,1.60
2006,12,13,00,31,4.30
2006,12,13,00,32,9.10
2006,12,13,00,33,3.80
2006,12,13,00,34,4.10
2006,12,13,00,35,4.50
2006,12,13,00,36,1.50
2006,12,13,00,37,4.10
2006,12,13,00,38,5.20
2006,12,13,00,39,9.20
2006,12,13,00,40,5.10
2006,12,13,00,41,3.80
2006,12,13,00,42,7.70
2006,12,13,00,43,8.60
2006,12,13,00,44,2.30
2006,12,13,00,45,3.70
2006,12,13,00,46,3.20
2006,12,13,00,47,4.30
2006,12,13,00,48,2.70
2006,12,13,00,49,4.10
2006,12,13,00,50,4.60
2006,12,13,00,51,3.90
2006,12,13,00,52,2.70
2006,12,13,00,53,1.90
2006,12,13,00,54,0.90
2006,12,13,00,55,1.70
2006,12,13,00,56,3.50
2006,12,13,00,57,2.60
2006,12,13,00,58,0.20
2006,12,13,00,59,5.40
2006,12,13,01,00,3.60
2006,12,13,01,01,2.00
2006,12,13,01,02,2.50
2006,12,13,01,03,2.40
2006,12,13,01,04,1.80
2006,12,13,01,05,4.60
2006,12,13,01,06,8.10
2006,12,13,01,07,6.90
2006,12,13,01,08,3.60
2006,12,13,01,09,5.20
2006,12,13,01,10,3.70
2006,12,13,01,11,3.30
2006,12,13,01,12,2.00
2006,12,13,01,13,0.50
2006,12,13,01,14,2.30
2006,12,13,01,15,5.70
2006,12,13,01,16,3.10
2006,12,13,01,17,3.40
2006,12,13,01,18,1.70
2006,12,13,01,19,3.70
2006,12,13,01,20,2.10
2006,12,13,01,21,1.50
2006,12,13,01,22,1.70
2006,12,13,01,23,2.40
2006,12,13,01,24,2.90
2006,12,13,01,25,2.90
2006,12,13,01,26,1.10
2006,12,13,01,27,2.80
2006,12,13,01,28,4.30
2006,12,13,01,29,3.60
2006,12,13,01,30,1.70
2006,12,13,01,31,3.00
2006,12,13,01,32,2.10
2006,12,13,01,33,2.90
2006,12,13,01,34,5.70
2006,12,13,01,35,0.90
2006,12,13,01,36,3.90
2006,12,13,01,37,9.30
2006,12,13,01,38,3.00
2006,12,13,01,39,6.20
2006,12,13,01,40,1.20
2006,12,13,01,41,1.90
2006,12,13,01,42,2.70
2006,12,13,01,43,14.00
2006,12,13,01,44,8.90
2006,12,13,01,45,5.80
2006,12,13,01,46,5.30
2006,12,13,01,47,1.90
2006,12,13,01,48,4.90
2006,12,13,01,49,3.60
2006,12,13,01,50,3.20
2006,12,13,01,51,3.70
2006,12,13,01,52,6.80
2006,12,13,01,53,4.10
2006,12,13,01,54,2.30
2006,12,13,01,55,4.10
2006,12,13,01,56,2.30
2006,12,13,01,57,4.90
2006,12,13,01,58,3.00
2006,12,13,01,59,5.00
2006,12,13,02,00,3.00
2006,12,13,02,01,3.00
2006,12,13,02,02,1.80
2006,12,13,02,03,3.90
2006,12,13,02,04,5.60
2006,12,13,02,05,5.10
2006,12,13,02,06,8.90
2006,12,13,02,07,4.40
2006,12,13,02,08,4.70
2006,12,13,02,09,4.30
2006,12,13,02,10,3.00
2006,12,13,02,11,5.40
2006,12,13,02,12,3.50
2006,12,13,02,13,4.60
2006,12,13,02,14,1.60
2006,12,13,02,15,0.30
2006,12,13,02,16,0.00
2006,12,13,02,17,1.40
2006,12,13,02,18,0.70
2006,12,13,02,19,5.10
2006,12,13,02,20,2.70
2006,12,13,02,21,5.00
2006,12,13,02,22,7.20
2006,12,13,02,23,3.20
2006,12,13,02,24,4.10
2006,12,13,02,25,4.50
2006,12,13,02,26,3.60
2006,12,13,02,27,2.40
2006,12,13,02,28,2.80
2006,12,13,02,29,2.40
2006,12,13,02,30,3.30
2006,12,13,02,31,3.50
2006,12,13,02,32,7.50
2006,12,13,02,33,4.70
2006,12,13,02,34,8.60
2006,12,13,02,35,6.00
2006,12,13,02,36,5.50
2006,12,13,02,37,6.20
2006,12,13,02,38,6.10
2006,12,13,02,39,6.50
2006,12,13,02,40,3.50
2006,12,13,02,41,2.50
2006,12,13,02,42,3.80
2006,12,13,02,43,3.90
2006,12,13,02,44,4.70
2006,12,13,02,45,2.50
2006,12,13,02,46,3.50
2006,12,13,02,47,3.10
2006,12,13,02,48,3.50
2006,12,13,02,49,11.30
2006,12,13,02,50,12.90
2006,12,13,02,51,9.00
2006,12,13,02,52,8.10
2006,12,13,02,53,7.30
2006,12,13,02,54,3.20
2006,12,13,02,55,3.60
2006,12,13,02,56,8.00
2006,12,13,02,57,13.90
2006,12,13,02,58,7.90
2006,12,13,02,59,8.20
2006,12,13,03,00,8.20
2006,12,13,03,01,8.30
2006,12,13,03,02,11.10
2006,12,13,03,03,9.60
2006,12,13,03,04,10.10
2006,12,13,03,05,9.70
2006,12,13,03,06,6.60
2006,12,13,03,07,7.90
2006,12,13,03,08,6.80
2006,12,13,03,09,9.30
2006,12,13,03,10,6.00
2006,12,13,03,11,8.80
2006,12,13,03,12,9.80
2006,12,13,03,13,9.40
2006,12,13,03,14,11.70
2006,12,13,03,15,8.20
2006,12,13,03,16,10.50
2006,12,13,03,17,11.30
2006,12,13,03,18,7.90
2006,12,13,03,19,8.20
2006,12,13,03,20,19.50
2006,12,13,03,21,7.30
2006,12,13,03,22,6.90
2006,12,13,03,23,10.40
2006,12,13,03,24,10.30
2006,12,13,03,25,14.80
2006,12,13,03,26,15.80
2006,12,13,03,27,12.50
2006,12,13,03,28,16.40
2006,12,13,03,29,25.90
2006,12,13,03,30,13.80
2006,12,13,03,31,14.60
2006,12,13,03,32,10.10
2006,12,13,03,33,15.40
2006,12,13,03,34,13.60
2006,12,13,03,35,19.00
2006,12,13,03,36,18.60
2006,12,13,03,37,10.30
2006,12,13,03,38,17.30
2006,12,13,03,39,20.00
2006,12,13,03,40,18.20
2006,12,13,03,41,12.70
2006,12,13,03,42,15.70
2006,12,13,03,43,14.40
2006,12,13,03,44,13.50
2006,12,13,03,45,14.20
2006,12,13,03,46,12.20
2006,12,13,03,47,14.70
2006,12,13,03,48,15.80
2006,12,13,03,49,6.70
2006,12,13,03,50,9.50
2006,12,13,03,51,11.60
2006,12,13,03,52,9.50
2006,12,13,03,53,14.40
2006,12,13,03,54,10.20
2006,12,13,03,55,18.20
2006,12,13,03,56,11.70
2006,12,13,03,57,10.00
2006,12,13,03,58,10.80
2006,12,13,03,59,11.10
2006,12,13,04,00,11.70
2006,12,13,04,01,14.40
2006,12,13,04,02,10.70
2006,12,13,04,03,23.60
2006,12,13,04,04,18.20
2006,12,13,04,05,12.80
2006,12,13,04,06,21.40
2006,12,13,04,07,12.90
2006,12,13,04,08,17.10
2006,12,13,04,09,22.50
2006,12,13,04,10,7.30
2006,12,13,04,11,13.90
2006,12,13,04,12,19.00
2006,12,13,04,13,15.30
2006,12,13,04,14,17.60
2006,12,13,04,15,10.50
2006,12,13,04,16,9.60
2006,12,13,04,17,15.60
2006,12,13,04,18,8.50
2006,12,13,04,19,4.80
2006,12,13,04,20,6.90
2006,12,13,04,21,11.00
2006,12,13,04,22,13.00
2006,12,13,04,23,8.00
2006,12,13,04,24,6.70
2006,12,13,04,25,8.60
2006,12,13,04,26,18.60
2006,12,13,04,27,13.90
2006,12,13,04,28,18.90
2006,12,13,04,29,22.90
2006,12,13,04,30,19.60
2006,12,13,04,31,14.60
2006,12,13,04,32,20.10
2006,12,13,04,33,16.60
2006,12,13,04,34,18.10
2006,12,13,04,35,17.90
2006,12,13,04,36,21.70
2006,12,13,04,37,19.90
2006,12,13,04,38,20.50
2006,12,13,04,39,25.20
2006,12,13,04,40,29.30
2006,12,13,04,41,17.70
2006,12,13,04,42,23.70
2006,12,13,04,43,30.40
2006,12,13,04,44,24.40
2006,12,13,04,45,28.90
2006,12,13,04,46,17.70
2006,12,13,04,47,25.40
2006,12,13,04,48,25.90
2006,12,13,04,49,25.10
2006,12,13,04,50,26.30
2006,12,13,04,51,24.20
2006,12,13,04,52,28.60
2006,12,13,04,53,26.40
2006,12,13,04,54,23.80
2006,12,13,04,55,24.90
2006,12,13,04,56,18.50
2006,12,13,04,57,24.90
2006,12,13,04,58,18.30
2006,12,13,04,59,16.10
2006,12,13,05,00,12.20
2006,12,13,05,01,17.20
2006,12,13,05,02,21.50
2006,12,13,05,03,20.50
2006,12,13,05,04,14.50
2006,12,13,05,05,13.10
2006,12,13,05,06,17.10
2006,12,13,05,07,18.70
2006,12,13,05,08,14.00
2006,12,13,05,09,19.40
2006,12,13,05,10,13.80
2006,12,13,05,11,14.70
2006,12,13,05,12,11.90
2006,12,13,05,13,9.70
2006,12,13,05,14,17.30
2006,12,13,05,15,16.40
2006,12,13,05,16,9.10
2006,12,13,05,17,18.20
2006,12,13,05,18,18.20
2006,12,13,05,19,18.10
2006,12,13,05,20,13.30
2006,12,13,05,21,12.60
2006,12,13,05,22,18.60
2006,12,13,05,23,17.70
2006,12,13,05,24,17.80
2006,12,13,05,25,13.80
2006,12,13,05,26,12.30
2006,12,13,05,27,13.60
2006,12,13,05,28,15.90
2006,12,13,05,29,21.00
2006,12,13,05,30,22.00
2006,12,13,05,31,11.30
2006,12,13,05,32,21.80
2006,12,13,05,33,13.40
2006,12,13,05,34,20.60
2006,12,13,05,35,22.10
2006,12,13,05,36,19.30
2006,12,13,05,37,14.80
2006,12,13,05,38,19.70
2006,12,13,05,39,17.50
2006,12,13,05,40,14.70
2006,12,13,05,41,12.50
2006,12,13,05,42,22.50
2006,12,13,05,43,18.70
2006,12,13,05,44,15.80
2006,12,13,05,45,16.00
2006,12,13,05,46,17.00
2006,12,13,05,47,24.90
2006,12,13,05,48,24.40
2006,12,13,05,49,15.00
2006,12,13,05,50,19.50
2006,12,13,05,51,13.30
2006,12,13,05,52,18.90
2006,12,13,05,53,22.10
2006,12,13,05,54,22.40
2006,12,13,05,55,21.70
2006,12,13,05,56,17.50
2006,12,13,05,57,20.60
2006,12,13,05,58,20.20
2006,12,13,05,59,27.90
2006,12,13,06,00,24.30
2006,12,13,06,01,19.10
2006,12,13,06,02,15.00
2006,12,13,06,03,17.10
2006,12,13,06,04,13.40
2006,12,13,06,05,12.50
2006,12,13,06,06,16.00
2006,12,13,06,07,18.70
2006,12,13,06,08,12.20
2006,12,13,06,09,14.20
2006,12,13,06,10,15.90
2006,12,13,06,11,13.40
2006,12,13,06,12,18.00
2006,12,13,06,13,20.30
2006,12,13,06,14,20.70
2006,12,13,06,15,14.60
2006,12,13,06,16,15.60
2006,12,13,06,17,15.00
2006,12,13,06,18,25.80
2006,12,13,06,19,18.40
2006,12,13,06,20,14.10
2006,12,13,06,21,16.30
2006,12,13,06,22,16.20
2006,12,13,06,23,11.50
2006,12,13,06,24,12.30
2006,12,13,06,25,11.60
2006,12,13,06,26,16.40
2006,12,13,06,27,15.30
2006,12,13,06,28,18.10
2006,12,13,06,29,14.40
2006,12,13,06,30,14.90
2006,12,13,06,31,20.30
2006,12,13,06,32,20.10
2006,12,13,06,33,16.20
2006,12,13,06,34,18.00
2006,12,13,06,35,15.70
2006,12,13,06,36,16.80
2006,12,13,06,37,21.30
2006,12,13,06,38,14.10
2006,12,13,06,39,28.30
2006,12,13,06,40,31.30
2006,12,13,06,41,25.50
2006,12,13,06,42,24.20
2006,12,13,06,43,24.50
2006,12,13,06,44,20.20
2006,12,13,06,45,23.00
2006,12,13,06,46,22.00
2006,12,13,06,47,19.90
2006,12,13,06,48,23.10
2006,12,13,06,49,27.00
2006,12,13,06,50,26.80
2006,12,13,06,51,19.00
2006,12,13,06,52,20.60
2006,12,13,06,53,19.30
2006,12,13,06,54,30.10
2006,12,13,06,55,16.30
2006,12,13,06,56,16.90
2006,12,13,06,57,19.20
2006,12,13,06,58,24.50
2006,12,13,06,59,22.30
2006,12,13,07,00,22.70
2006,12,13,07,01,15.50
2006,12,13,07,02,16.30
2006,12,13,07,03,15.80
2006,12,13,07,04,20.00
2006,12,13,07,05,22.40
2006,12,13,07,06,21.20
2006,12,13,07,07,17.00
2006,12,13,07,08,26.60
2006,12,13,07,09,22.40
2006,12,13,07,10,17.80
2006,12,13,07,11,18.40
2006,12,13,07,12,16.80
2006,12,13,07,13,17.00
2006,12,13,07,14,23.40
2006,12,13,07,15,20.40
2006,12,13,07,16,25.50
2006,12,13,07,17,24.10
2006,12,13,07,18,28.30
2006,12,13,07,19,36.20
2006,12,13,07,20,26.60
2006,12,13,07,21,27.40
2006,12,13,07,22,21.30
2006,12,13,07,23,30.10
2006,12,13,07,24,30.60
2006,12,13,07,25,36.70
2006,12,13,07,26,29.70
2006,12,13,07,27,25.60
2006,12,13,07,28,26.70
2006,12,13,07,29,24.40
2006,12,13,07,30,19.00
2006,12,13,07,31,22.90
2006,12,13,07,32,21.00
2006,12,13,07,33,26.60
2006,12,13,07,34,24.90
2006,12,13,07,35,28.00
2006,12,13,07,36,21.90
2006,12,13,07,37,27.20
2006,12,13,07,38,23.40
2006,12,13,07,39,23.50
2006,12,13,07,40,23.20
2006,12,13,07,41,29.60
2006,12,13,07,42,26.40
2006,12,13,07,43,28.10
2006,12,13,07,44,30.20
2006,12,13,07,45,28.20
2006,12,13,07,46,23.10
2006,12,13,07,47,21.00
2006,12,13,07,48,20.00
2006,12,13,07,49,22.70
2006,12,13,07,50,20.20
2006,12,13,07,51,25.00
2006,12,13,07,52,16.70
2006,12,13,07,53,17.30
2006,12,13,07,54,22.60
2006,12,13,07,55,17.80
2006,12,13,07,56,17.40
2006,12,13,07,57,26.30
2006,12,13,07,58,25.90
2006,12,13,07,59,26.00
2006,12,13,08,00,20.00
2006,12,13,08,01,21.80
2006,12,13,08,02,21.40
2006,12,13,08,03,21.50
2006,12,13,08,04,25.70
2006,12,13,08,05,21.00
2006,12,13,08,06,22.00
2006,12,13,08,07,23.40
2006,12,13,08,08,15.80
2006,12,13,08,09,24.30
2006,12,13,08,10,24.10
2006,12,13,08,11,27.40
2006,12,13,08,12,22.50
2006,12,13,08,13,28.60
2006,12,13,08,14,26.10
2006,12,13,08,15,27.90
2006,12,13,08,16,24.20
2006,12,13,08,17,27.30
2006,12,13,08,18,26.10
2006,12,13,08,19,29.10
2006,12,13,08,20,30.20
2006,12,13,08,21,19.90
2006,12,13,08,22,22.90
2006,12,13,08,23,28.70
2006,12,13,08,24,28.90
2006,12,13,08,25,35.40
2006,12,13,08,26,27.00
2006,12,13,08,27,17.60
2006,12,13,08,28,35.90
2006,12,13,08,29,30.00
2006,12,13,08,30,30.60
2006,12,13,08,31,36.60
2006,12,13,08,32,30.30
2006,12,13,08,33,27.40
2006,12,13,08,34,26.30
2006,12,13,08,35,23.00
2006,12,13,08,36,32.80
2006,12,13,08,37,26.40
2006,12,13,08,38,26.20
2006,12,13,08,39,27.40
2006,12,13,08,40,31.60
2006,12,13,08,41,30.30
2006,12,13,08,42,30.20
2006,12,13,08,43,26.30
2006,12,13,08,44,29.10
2006,12,13,08,45,22.40
2006,12,13,08,46,29.60
2006,12,13,08,47,30.10
2006,12,13,08,48,30.00
2006,12,13,08,49,32.30
2006,12,13,08,50,35.70
2006,12,13,08,51,23.20
2006,12,13,08,52,20.10
2006,12,13,08,53,30.90
2006,12,13,08,54,23.00
2006,12,13,08,55,22.10
2006,12,13,08,56,29.10
2006,12,13,08,57,19.40
2006,12,13,08,58,27.30
2006,12,13,08,59,27.40
2006,12,13,09,00,26.00
2006,12,13,09,01,22.60
2006,12,13,09,02,23.50
2006,12,13,09,03,23.50
2006,12,13,09,04,16.10
2006,12,13,09,05,20.40
2006,12,13,09,06,17.00
2006,12,13,09,07,16.10
2006,12,13,09,08,21.20
2006,12,13,09,09,20.00
2006,12,13,09,10,16.00
2006,12,13,09,11,18.60
2006,12,13,09,12,17.30
2006,12,13,09,13,14.10
2006,12,13,09,14,22.60
2006,12,13,09,15,24.50
2006,12,13,09,16,22.80
2006,12,13,09,17,30.70
2006,12,13,09,18,43.90
2006,12,13,09,19,31.90
2006,12,13,09,20,22.70
2006,12,13,09,21,23.00
2006,12,13,09,22,22.30
2006,12,13,09,23,18.30
2006,12,13,09,24,24.20
2006,12,13,09,25,26.30
2006,12,13,09,26,30.40
2006,12,13,09,27,35.70
2006,12,13,09,28,26.20
2006,12,13,09,29,32.50
2006,12,13,09,30,27.30
2006,12,13,09,31,25.70
2006,12,13,09,32,21.90
2006,12,13,09,33,24.20
2006,12,13,09,34,26.80
2006,12,13,09,35,27.00
2006,12,13,09,36,22.90
2006,12,13,09,37,21.00
2006,12,13,09,38,15.80
2006,12,13,09,39,17.10
2006,12,13,09,40,21.30
2006,12,13,09,41,26.20
2006,12,13,09,42,34.90
2006,12,13,09,43,22.00
2006,12,13,09,44,19.60
2006,12,13,09,45,20.90
2006,12,13,09,46,20.80
2006,12,13,09,47,23.40
2006,12,13,09,48,21.90
2006,12,13,09,49,32.10
2006,12,13,09,50,32.30
2006,12,13,09,51,29.60
2006,12,13,09,52,28.80
2006,12,13,09,53,30.10
2006,12,13,09,54,25.80
2006,12,13,09,55,23.70
2006,12,13,09,56,24.10
2006,12,13,09,57,32.30
2006,12,13,09,58,23.80
2006,12,13,09,59,18.00
2006,12,13,10,00,19.90
2006,12,13,10,01,20.10
2006,12,13,10,02,23.40
2006,12,13,10,03,33.60
2006,12,13,10,04,30.70
2006,12,13,10,05,27.10
2006,12,13,10,06,26.10
2006,12,13,10,07,22.90
2006,12,13,10,08,25.20
2006,12,13,10,09,33.00
2006,12,13,10,10,23.00
2006,12,13,10,11,24.30
2006,12,13,10,12,32.00
2006,12,13,10,13,28.00
2006,12,13,10,14,30.50
2006,12,13,10,15,34.00
2006,12,13,10,16,31.80
2006,12,13,10,17,33.00
2006,12,13,10,18,30.70
2006,12,13,10,19,32.20
2006,12,13,10,20,29.00
2006,12,13,10,21,22.70
2006,12,13,10,22,21.70
2006,12,13,10,23,27.40
2006,12,13,10,24,23.10
2006,12,13,10,25,24.10
2006,12,13,10,26,29.00
2006,12,13,10,27,25.20
2006,12,13,10,28,18.70
2006,12,13,10,29,23.90
2006,12,13,10,30,24.50
2006,12,13,10,31,18.90
2006,12,13,10,32,28.50
2006,12,13,10,33,22.70
2006,12,13,10,34,20.40
2006,12,13,10,35,26.40
2006,12,13,10,36,29.60
2006,12,13,10,37,34.00
2006,12,13,10,38,34.00
2006,12,13,10,39,25.60
2006,12,13,10,40,33.20
2006,12,13,10,41,34.00
2006,12,13,10,42,27.40
2006,12,13,10,43,38.20
2006,12,13,10,44,32.40
2006,12,13,10,45,38.00
2006,12,13,10,46,26.50
2006,12,13,10,47,32.20
2006,12,13,10,48,25.30
2006,12,13,10,49,21.40
2006,12,13,10,50,24.40
2006,12,13,10,51,28.50
2006,12,13,10,52,20.80
2006,12,13,10,53,25.40
2006,12,13,10,54,24.00
2006,12,13,10,55,26.30
2006,12,13,10,56,28.10
2006,12,13,10,57,27.90
2006,12,13,10,58,23.30
2006,12,13,10,59,21.90
2006,12,13,11,00,26.30
2006,12,13,11,01,24.40
2006,12,13,11,02,22.00
2006,12,13,11,03,29.00
2006,12,13,11,04,31.00
2006,12,13,11,05,42.50
2006,12,13,11,06,34.10
2006,12,13,11,07,33.70
2006,12,13,11,08,31.90
2006,12,13,11,09,28.70
2006,12,13,11,10,26.40
2006,12,13,11,11,23.60
2006,12,13,11,12,26.30
2006,12,13,11,13,20.20
2006,12,13,11,14,23.40
2006,12,13,11,15,22.30
2006,12,13,11,16,27.00
2006,12,13,11,17,20.70
2006,12,13,11,18,24.80
2006,12,13,11,19,37.00
2006,12,13,11,20,21.40
2006,12,13,11,21,28.00
2006,12,13,11,22,14.40
2006,12,13,11,23,25.10
2006,12,13,11,24,23.00
2006,12,13,11,25,22.20
2006,12,13,11,26,25.80
2006,12,13,11,27,32.00
2006,12,13,11,28,27.80
2006,12,13,11,29,29.60
2006,12,13,11,30,29.80
2006,12,13,11,31,27.40
2006,12,13,11,32,24.60
2006,12,13,11,33,28.50
2006,12,13,11,34,20.30
2006,12,13,11,35,23.50
2006,12,13,11,36,24.80
2006,12,13,11,37,33.40
2006,12,13,11,38,26.20
2006,12,13,11,39,25.10
2006,12,13,11,40,25.20
2006,12,13,11,41,21.20
2006,12,13,11,42,25.80
2006,12,13,11,43,24.30
2006,12,13,11,44,22.60
2006,12,13,11,45,30.90
2006,12,13,11,46,25.70
2006,12,13,11,47,27.40
2006,12,13,11,48,18.80
2006,12,13,11,49,23.50
2006,12,13,11,50,26.30
2006,12,13,11,51,25.80
2006,12,13,11,52,30.20
2006,12,13,11,53,22.20
2006,12,13,11,54,30.00
2006,12,13,11,55,18.30
2006,12,13,11,56,21.10
2006,12,13,11,57,23.40
2006,12,13,11,58,18.50
2006,12,13,11,59,20.10
2006,12,13,12,00,29.50
2006,12,13,12,01,24.30
2006,12,13,12,02,24.90
2006,12,13,12,03,24.80
2006,12,13,12,04,24.50
2006,12,13,12,05,20.80
2006,12,13,12,06,24.30
2006,12,13,12,07,38.50
2006,12,13,12,08,39.60
2006,12,13,12,09,30.50
2006,12,13,12,10,28.30
2006,12,13,12,11,24.20
2006,12,13,12,12,25.40
2006,12,13,12,13,26.10
2006,12,13,12,14,31.50
2006,12,13,12,15,20.60
2006,12,13,12,16,27.80
2006,12,13,12,17,29.90
2006,12,13,12,18,27.80
2006,12,13,12,19,23.20
2006,12,13,12,20,33.00
2006,12,13,12,21,27.00
2006,12,13,12,22,30.80
2006,12,13,12,23,29.00
2006,12,13,12,24,28.80
2006,12,13,12,25,29.30
2006,12,13,12,26,22.40
2006,12,13,12,27,22.00
2006,12,13,12,28,20.10
2006,12,13,12,29,29.20
2006,12,13,12,30,32.10
2006,12,13,12,31,24.30
2006,12,13,12,32,20.30
2006,12,13,12,33,32.60
2006,12,13,12,34,22.30
2006,12,13,12,35,27.70
2006,12,13,12,36,22.60
2006,12,13,12,37,28.60
2006,12,13,12,38,30.10
2006,12,13,12,39,22.90
2006,12,13,12,40,32.70
2006,12,13,12,41,24.30
2006,12,13,12,42,23.10
2006,12,13,12,43,35.60
2006,12,13,12,44,27.90
2006,12,13,12,45,22.60
2006,12,13,12,46,25.00
2006,12,13,12,47,19.40
2006,12,13,12,48,25.10
2006,12,13,12,49,22.50
2006,12,13,12,50,21.10
2006,12,13,12,51,20.80
2006,12,13,12,52,27.20
2006,12,13,12,53,17.20
2006,12,13,12,54,22.40
2006,12,13,12,55,27.30
2006,12,13,12,56,26.90
2006,12,13,12,57,27.30
2006,12,13,12,58,20.80
2006,12,13,12,59,24.20
2006,12,13,13,00,18.50
2006,12,13,13,01,24.80
2006,12,13,13,02,22.30
2006,12,13,13,03,17.40
2006,12,13,13,04,19.70
2006,12,13,13,05,27.10
2006,12,13,13,06,18.60
2006,12,13,13,07,24.10
2006,12,13,13,08,33.00
2006,12,13,13,09,28.30
2006,12,13,13,10,21.00
2006,12,13,13,11,31.10
2006,12,13,13,12,26.50
2006,12,13,13,13,30.30
2006,12,13,13,14,27.00
2006,12,13,13,15,27.00
2006,12,13,13,16,21.50
2006,12,13,13,17,21.50
2006,12,13,13,18,18.50
2006,12,13,13,19,16.50
2006,12,13,13,20,18.60
2006,12,13,13,21,13.00
2006,12,13,13,22,21.50
2006,12,13,13,23,24.80
2006,12,13,13,24,24.50
2006,12,13,13,25,22.40
2006,12,13,13,26,18.30
2006,12,13,13,27,19.60
2006,12,13,13,28,16.10
2006,12,13,13,29,20.90
2006,12,13,13,30,23.80
2006,12,13,13,31,27.60
2006,12,13,13,32,22.70
2006,12,13,13,33,21.50
2006,12,13,13,34,21.80
2006,12,13,13,35,17.70
2006,12,13,13,36,14.10
2006,12,13,13,37,13.70
2006,12,13,13,38,23.90
2006,12,13,13,39,21.40
2006,12,13,13,40,30.80
2006,12,13,13,41,26.70
2006,12,13,13,42,35.50
2006,12,13,13,43,21.10
2006,12,13,13,44,20.80
2006,12,13,13,45,13.70
2006,12,13,13,46,33.70
2006,12,13,13,47,24.40
2006,12,13,13,48,23.40
2006,12,13,13,49,25.40
2006,12,13,13,50,28.90
2006,12,13,13,51,29.00
2006,12,13,13,52,27.50
2006,12,13,13,53,22.10
2006,12,13,13,54,26.30
2006,12,13,13,55,18.50
2006,12,13,13,56,26.60
2006,12,13,13,57,33.30
2006,12,13,13,58,32.40
2006,12,13,13,59,24.50
2006,12,13,14,00,29.50
2006,12,13,14,01,19.60
2006,12,13,14,02,28.70
2006,12,13,14,03,21.90
2006,12,13,14,04,26.70
2006,12,13,14,05,18.10
2006,12,13,14,06,26.80
2006,12,13,14,07,16.40
2006,12,13,14,08,24.50
2006,12,13,14,09,21.50
2006,12,13,14,10,19.20
2006,12,13,14,11,23.60
2006,12,13,14,12,12.50
2006,12,13,14,13,15.50
2006,12,13,14,14,16.30
2006,12,13,14,15,17.20
2006,12,13,14,16,16.10
2006,12,13,14,17,8.30
2006,12,13,14,18,21.90
2006,12,13,14,19,18.70
2006,12,13,14,20,22.40
2006,12,13,14,21,18.90
2006,12,13,14,22,16.60
2006,12,13,14,23,16.60
2006,12,13,14,24,20.60
2006,12,13,14,25,17.20
2006,12,13,14,26,17.50
2006,12,13,14,27,18.40
2006,12,13,14,28,18.90
2006,12,13,14,29,14.10
2006,12,13,14,30,8.00
2006,12,13,14,31,18.90
2006,12,13,14,32,20.20
2006,12,13,14,33,18.40
2006,12,13,14,34,20.60
2006,12,13,14,35,23.20
2006,12,13,14,36,20.20
2006,12,13,14,37,9.70
2006,12,13,14,38,17.20
2006,12,13,14,39,16.90
2006,12,13,14,40,17.30
2006,12,13,14,41,17.30
2006,12,13,14,42,25.20
2006,12,13,14,43,17.80
2006,12,13,14,44,13.00
2006,12,13,14,45,20.80
2006,12,13,14,46,23.50
2006,12,13,14,47,26.90
2006,12,13,14,48,20.00
2006,12,13,14,49,24.90
2006,12,13,14,50,21.90
2006,12,13,14,51,15.50
2006,12,13,14,52,15.20
2006,12,13,14,53,17.20
2006,12,13,14,54,13.00
2006,12,13,14,55,13.20
2006,12,13,14,56,11.70
2006,12,13,14,57,10.40
2006,12,13,14,58,12.90
2006,12,13,14,59,16.70
2006,12,13,15,00,15.20
2006,12,13,15,01,30.60
2006,12,13,15,02,21.40
2006,12,13,15,03,22.70
2006,12,13,15,04,19.10
2006,12,13,15,05,30.60
2006,12,13,15,06,32.80
2006,12,13,15,07,23.50
2006,12,13,15,08,23.30
2006,12,13,15,09,21.60
2006,12,13,15,10,20.90
2006,12,13,15,11,19.60
2006,12,13,15,12,20.70
2006,12,13,15,13,14.80
2006,12,13,15,14,19.80
2006,12,13,15,15,22.50
2006,12,13,15,16,21.40
2006,12,13,15,17,17.70
2006,12,13,15,18,19.20
2006,12,13,15,19,19.70
2006,12,13,15,20,20.40
2006,12,13,15,21,14.60
2006,12,13,15,22,17.00
2006,12,13,15,23,20.20
2006,12,13,15,24,17.30
2006,12,13,15,25,18.50
2006,12,13,15,26,15.20
2006,12,13,15,27,13.30
2006,12,13,15,28,15.10
2006,12,13,15,29,21.30
2006,12,13,15,30,19.20
2006,12,13,15,31,14.70
2006,12,13,15,32,7.80
2006,12,13,15,33,12.50
2006,12,13,15,34,16.30
2006,12,13,15,35,21.80
2006,12,13,15,36,11.90
2006,12,13,15,37,17.90
2006,12,13,15,38,9.20
2006,12,13,15,39,12.00
2006,12,13,15,40,13.90
2006,12,13,15,41,15.20
2006,12,13,15,42,12.80
2006,12,13,15,43,10.90
2006,12,13,15,44,14.70
2006,12,13,15,45,14.90
2006,12,13,15,46,8.10
2006,12,13,15,47,11.80
2006,12,13,15,48,7.70
2006,12,13,15,49,10.10
2006,12,13,15,50,10.10
2006,12,13,15,51,9.70
2006,12,13,15,52,12.00
2006,12,13,15,53,8.00
2006,12,13,15,54,7.30
2006,12,13,15,55,8.10
2006,12,13,15,56,9.80
2006,12,13,15,57,5.60
2006,12,13,15,58,7.80
2006,12,13,15,59,9.20
2006,12,13,16,00,7.70
2006,12,13,16,01,6.80
2006,12,13,16,02,9.20
2006,12,13,16,03,5.30
2006,12,13,16,04,9.90
2006,12,13,16,05,7.50
2006,12,13,16,06,8.00
2006,12,13,16,07,6.80
2006,12,13,16,08,5.80
2006,12,13,16,09,7.00
2006,12,13,16,10,5.60
2006,12,13,16,11,5.10
2006,12,13,16,12,4.20
2006,12,13,16,13,6.40
2006,12,13,16,14,7.50
2006,12,13,16,15,8.00
2006,12,13,16,16,8.10
2006,12,13,16,17,7.60
2006,12,13,16,18,9.20
2006,12,13,16,19,7.00
2006,12,13,16,20,14.20
2006,12,13,16,21,4.50
2006,12,13,16,22,5.40
2006,12,13,16,23,6.10
2006,12,13,16,24,13.00
2006,12,13,16,25,9.10
2006,12,13,16,26,12.10
2006,12,13,16,27,15.90
2006,12,13,16,28,10.90
2006,12,13,16,29,13.40
2006,12,13,16,30,9.70
2006,12,13,16,31,7.80
2006,12,13,16,32,9.20
2006,12,13,16,33,4.80
2006,12,13,16,34,3.80
2006,12,13,16,35,3.10
2006,12,13,16,36,4.80
2006,12,13,16,37,4.80
2006,12,13,16,38,4.60
2006,12,13,16,39,6.00
2006,12,13,16,40,7.50
2006,12,13,16,41,4.90
2006,12,13,16,42,10.10
2006,12,13,16,43,7.40
2006,12,13,16,44,7.80
2006,12,13,16,45,10.00
2006,12,13,16,46,5.90
2006,12,13,16,47,6.90
2006,12,13,16,48,8.30
2006,12,13,16,49,10.80
2006,12,13,16,50,17.30
2006,12,13,16,51,19.20
2006,12,13,16,52,18.30
2006,12,13,16,53,16.90
2006,12,13,16,54,11.10
2006,12,13,16,55,12.60
2006,12,13,16,56,14.60
2006,12,13,16,57,14.60
2006,12,13,16,58,6.50
2006,12,13,16,59,9.90
2006,12,13,17,00,12.30
2006,12,13,17,01,12.90
2006,12,13,17,02,13.90
2006,12,13,17,03,9.40
2006,12,13,17,04,10.60
2006,12,13,17,05,8.80
2006,12,13,17,06,13.40
2006,12,13,17,07,10.30
2006,12,13,17,08,11.40
2006,12,13,17,09,12.10
2006,12,13,17,10,7.60
2006,12,13,17,11,8.80
2006,12,13,17,12,6.40
2006,12,13,17,13,12.00
2006,12,13,17,14,9.70
2006,12,13,17,15,5.90
2006,12,13,17,16,9.30
2006,12,13,17,17,10.10
2006,12,13,17,18,6.70
2006,12,13,17,19,7.60
2006,12,13,17,20,8.60
2006,12,13,17,21,4.80
2006,12,13,17,22,5.70
2006,12,13,17,23,8.50
2006,12,13,17,24,4.70
2006,12,13,17,25,3.40
2006,12,13,17,26,6.50
2006,12,13,17,27,9.30
2006,12,13,17,28,12.20
2006,12,13,17,29,5.30
2006,12,13,17,30,13.50
2006,12,13,17,31,9.60